Weather History for Inverness, FL

Change the Weather History Date:

Wednesday, December 5, 2012

  Actual Average (KOCF) Record (KOCF)
Temperature  
Mean Temperature 64 °F -  
Max Temperature 78 °F 70 °F 82 °F (1998)
Min Temperature 50 °F 47 °F 35 °F (2000)
Degree Days  
Heating Degree Days 1    
Growing Degree Days 14 (Base 50)    
Moisture  
Dew Point 55 °F    
Average Humidity 78    
Maximum Humidity 100    
Minimum Humidity 39    
Precipitation  
Precipitation 0.00 in - - ()
Sea Level Pressure  
Sea Level Pressure 30.14 in    
Wind  
Wind Speed 2 mph (NE)    
Max Wind Speed 10 mph    
Max Gust Speed 9 mph    
Visibility 10 miles    
Events      
Averages and records for this station are not official NWS values.
T = Trace of Precipitation, MM = Missing Value Source: NWS Daily Summary

Daily Weather History Graph

Daily Weather History Graph

Search for Another Location

Airport:

Trip Planner

Search our weather history database for the weather conditions in past years. The results will help you decide how hot, cold, wet, or windy it might be!

Date:

Astronomy

Dec. 05, 2012 Rise Set
Actual Time 7:08 AM EST 5:31 PM EST
Civil Twilight 6:42 AM EST 5:57 PM EST
Nautical Twilight 6:13 AM EST 6:26 PM EST
Astronomical Twilight 5:44 AM EST 6:55 PM EST
Moon 11:56 PM EST (12/5) 11:52 AM EST (12/5)
Length of Visible Light 11h 15m
Length of Day
10h 23m
Waning Gibbous, 60% of the Moon is Illuminated
Dec 5
Waning Gibbous
Dec 6
Last Quarter
Dec 13
New
Dec 20
First Quarter
Dec 28
Full

Hourly Weather History & Observations

Time (EST) Temp. Dew Point Humidity Pressure Visibility Wind Dir Wind Speed Gust Speed Precip Events Conditions
12:15 AM 53.6 °F 51.8 °F 94% 30.23 in 10.0 mi Calm Calm - N/A   Clear
12:35 AM 53.6 °F 51.8 °F 94% 30.23 in 10.0 mi Calm Calm - N/A   Clear
12:55 AM 51.8 °F 51.8 °F 100% 30.22 in 10.0 mi Calm Calm - N/A   Clear
1:15 AM 51.8 °F 51.8 °F 100% 30.21 in 10.0 mi Calm Calm - N/A   Clear
1:35 AM 50.0 °F 50.0 °F 100% 30.21 in 10.0 mi Calm Calm - N/A   Clear
1:55 AM 50.0 °F 50.0 °F 100% 30.21 in 10.0 mi Calm Calm - N/A   Clear
2:15 AM 51.8 °F 50.0 °F 94% 30.20 in 10.0 mi Calm Calm - N/A   Clear
2:55 AM 51.8 °F 51.8 °F 100% 30.19 in 10.0 mi Calm Calm - N/A   Clear
3:15 AM 51.8 °F 51.8 °F 100% 30.19 in 10.0 mi Calm Calm - N/A   Clear
3:35 AM 51.8 °F 50.0 °F 94% 30.19 in 10.0 mi Calm Calm - N/A   Clear
3:55 AM 50.0 °F 50.0 °F 100% 30.19 in 10.0 mi Calm Calm - N/A   Clear
4:15 AM 51.8 °F 50.0 °F 94% 30.18 in 10.0 mi Calm Calm - N/A   Clear
4:35 AM 51.8 °F 50.0 °F 94% 30.16 in 10.0 mi Calm Calm - N/A   Clear
4:55 AM 50.0 °F 50.0 °F 100% 30.16 in 10.0 mi Calm Calm - N/A   Clear
5:15 AM 50.0 °F 50.0 °F 100% 30.17 in 10.0 mi Calm Calm - N/A   Clear
5:35 AM 50.0 °F 50.0 °F 100% 30.16 in 10.0 mi Calm Calm - N/A   Clear
5:55 AM 50.0 °F 50.0 °F 100% 30.16 in 10.0 mi Calm Calm - N/A   Clear
6:15 AM 50.0 °F 50.0 °F 100% 30.17 in 10.0 mi Calm Calm - N/A   Clear
6:35 AM 50.0 °F 48.2 °F 94% 30.18 in 4.0 mi Calm Calm - N/A   Scattered Clouds
6:55 AM 50.0 °F 50.0 °F 100% 30.18 in 7.0 mi Calm Calm - N/A   Scattered Clouds
7:15 AM 50.0 °F 50.0 °F 100% 30.19 in 10.0 mi Calm Calm - N/A   Mostly Cloudy
7:35 AM 50.0 °F 50.0 °F 100% 30.19 in 10.0 mi Calm Calm - N/A   Overcast
7:55 AM 51.8 °F 51.8 °F 100% 30.20 in 10.0 mi Calm Calm - N/A   Overcast
9:35 AM 64.4 °F 55.4 °F 73% 30.21 in 10.0 mi ENE 4.6 mph - N/A   Mostly Cloudy
9:55 AM 68.0 °F 55.4 °F 64% 30.21 in 10.0 mi NNE 4.6 mph - N/A   Mostly Cloudy
10:15 AM 69.8 °F 57.2 °F 64% 30.20 in 10.0 mi NE 4.6 mph - N/A   Mostly Cloudy
10:35 AM 69.8 °F 57.2 °F 64% 30.20 in 10.0 mi NNE 4.6 mph - N/A   Overcast
10:55 AM 71.6 °F 59.0 °F 64% 30.20 in 10.0 mi Calm Calm - N/A   Overcast
11:15 AM 73.4 °F 59.0 °F 61% 30.19 in 10.0 mi ESE 3.5 mph - N/A   Overcast
11:35 AM 73.4 °F 59.0 °F 61% 30.18 in 10.0 mi North 5.8 mph - N/A   Mostly Cloudy
11:55 AM 75.2 °F 59.0 °F 57% 30.17 in 10.0 mi NE 5.8 mph - N/A   Overcast
12:15 PM 75.2 °F 59.0 °F 57% 30.16 in 10.0 mi NNE 5.8 mph - N/A   Scattered Clouds
12:35 PM 77.0 °F 53.6 °F 44% 30.14 in 10.0 mi NE 6.9 mph - N/A   Scattered Clouds
12:55 PM 73.4 °F 53.6 °F 50% 30.14 in 10.0 mi NNE 4.6 mph - N/A   Clear
1:15 PM 77.0 °F 53.6 °F 44% 30.12 in 10.0 mi NW 4.6 mph - N/A   Scattered Clouds
1:35 PM 77.0 °F 51.8 °F 41% 30.11 in 10.0 mi Calm Calm - N/A   Scattered Clouds
1:55 PM 77.0 °F 51.8 °F 41% 30.10 in 10.0 mi NNE 5.8 mph - N/A   Scattered Clouds
2:15 PM 78.8 °F 51.8 °F 39% 30.09 in 10.0 mi NE 5.8 mph - N/A   Mostly Cloudy
2:35 PM 77.0 °F 51.8 °F 41% 30.09 in 10.0 mi NE 5.8 mph - N/A   Overcast
2:55 PM 77.0 °F 51.8 °F 41% 30.08 in 10.0 mi NE 4.6 mph - N/A   Overcast
3:15 PM 75.2 °F 53.6 °F 47% 30.08 in 10.0 mi ENE 5.8 mph - N/A   Overcast
3:35 PM 75.2 °F 53.6 °F 47% 30.07 in 10.0 mi East 3.5 mph - N/A   Mostly Cloudy
3:55 PM 77.0 °F 55.4 °F 47% 30.06 in 10.0 mi ENE 4.6 mph - N/A   Mostly Cloudy
4:15 PM 77.0 °F 55.4 °F 47% 30.06 in 10.0 mi ENE 8.1 mph - N/A   Scattered Clouds
4:35 PM 75.2 °F 55.4 °F 50% 30.06 in 10.0 mi East 3.5 mph - N/A   Scattered Clouds
4:55 PM 73.4 °F 57.2 °F 57% 30.07 in 10.0 mi NE 5.8 mph - N/A   Clear
5:15 PM 71.6 °F 59.0 °F 64% 30.08 in 10.0 mi ENE 9.2 mph - N/A   Clear
5:35 PM 69.8 °F 59.0 °F 68% 30.08 in 10.0 mi East 10.4 mph - N/A   Clear
5:55 PM 68.0 °F 59.0 °F 73% 30.09 in 10.0 mi ENE 8.1 mph - N/A   Clear
6:15 PM 68.0 °F 59.0 °F 73% 30.09 in 10.0 mi ENE 5.8 mph 9.2 mph N/A   Clear
6:35 PM 66.2 °F 59.0 °F 78% 30.09 in 10.0 mi NE 6.9 mph - N/A   Clear
6:55 PM 64.4 °F 57.2 °F 77% 30.10 in 10.0 mi NE 5.8 mph - N/A   Clear
7:15 PM 64.4 °F 57.2 °F 77% 30.10 in 10.0 mi NNE 3.5 mph - N/A   Clear
7:35 PM 64.4 °F 59.0 °F 83% 30.10 in 10.0 mi ENE 3.5 mph - N/A   Mostly Cloudy
7:55 PM 62.6 °F 57.2 °F 82% 30.11 in 10.0 mi Calm Calm - N/A   Mostly Cloudy
8:15 PM 62.6 °F 59.0 °F 88% 30.11 in 10.0 mi Calm Calm - N/A   Mostly Cloudy
8:35 PM 62.6 °F 59.0 °F 88% 30.11 in 10.0 mi NE 3.5 mph - N/A   Scattered Clouds
8:55 PM 60.8 °F 57.2 °F 88% 30.11 in 10.0 mi Calm Calm - N/A   Mostly Cloudy
9:15 PM 60.8 °F 59.0 °F 94% 30.10 in 10.0 mi NNE 3.5 mph - N/A   Scattered Clouds
9:35 PM 60.8 °F 59.0 °F 94% 30.10 in 10.0 mi Calm Calm - N/A   Scattered Clouds
9:55 PM 60.8 °F 59.0 °F 94% 30.10 in 10.0 mi North 3.5 mph - N/A   Scattered Clouds
10:15 PM 59.0 °F 57.2 °F 94% 30.09 in 10.0 mi Calm Calm - N/A   Clear
10:35 PM 60.8 °F 59.0 °F 94% 30.09 in 10.0 mi Calm Calm - N/A   Mostly Cloudy
10:55 PM 60.8 °F 59.0 °F 94% 30.10 in 10.0 mi Calm Calm - N/A   Overcast
11:15 PM 60.8 °F 59.0 °F 94% 30.09 in 10.0 mi ENE 4.6 mph - N/A   Mostly Cloudy
11:35 PM 60.8 °F 60.8 °F 100% 30.09 in 10.0 mi Calm Calm - N/A   Mostly Cloudy
11:55 PM 60.8 °F 60.8 °F 100% 30.09 in 10.0 mi ENE 3.5 mph - N/A   Mostly Cloudy